Terminal Aerodrome Forecast
Issued by NWS

Home | Current Version | Previous Version | Text Only | Print | Product List | Glossary On
Versions: 1 2 3 4 5 6 7 8 9 10 11 12 13 14
000
FTUS44 KMOB 090618 RRA
TAFBFM
TAF
KBFM 090618Z 0906/1006 35012KT P6SM SKC
     FM091500 36014G20KT P6SM SCT250
     FM100000 36008KT P6SM SKC=

USA.gov is the U.S. government's official web portal to all federal, state and local government web resources and services.